Location: Unspecified
(32.6180°N, 83.6190°W)
Time: 02:24:04
(UTC+00:00)

Daily predictions for brighter satellites

Satellite Brightness Start Highest point End
(mag) Time Altitude Azimuth Time Altitude Azimuth Time Altitude Azimuth
NOSS 2-1 (D) 3.7 00:28:58 10° NNW 00:32:53 72° ENE 00:38:19 10° SE
SL-16 R/B 2.5 00:27:56 10° SSW 00:33:34 75° WNW 00:39:15 10° NNE
NOAA 6 4.0 00:29:32 10° SSE 00:34:36 80° ENE 00:39:41 10° N
OAO 2 Rocket 3.4 00:29:54 10° WNW 00:35:10 88° NNE 00:40:21 10° ESE
PSLV R/B 3.4 00:32:21 10° SSE 00:36:24 68° ENE 00:40:30 10° N
CARTOSAT-1 4.1 00:32:57 10° S 00:37:05 61° W 00:41:15 10° NNW
Cosmos 2150 Rocket 4.0 00:33:14 10° SSW 00:38:21 81° ESE 00:43:34 10° NNE
Meteor 1-11 4.2 00:35:27 10° N 00:40:55 64° E 00:46:25 10° SSE
USA 276 2.5 00:41:26 10° W 00:42:25 21° NW 00:43:20 10° NNE
SJ-6B 2.8 00:39:08 10° SSE 00:42:39 51° ENE 00:46:07 10° N
Cosmos 2285 Rocket 4.0 00:38:35 10° S 00:44:56 77° ESE 00:51:16 10° NNE
NOSS 2-1 (E) 3.6 00:45:57 10° NNW 00:49:50 79° ENE 00:55:13 10° SSE
SL-19 R/B 4.2 00:44:45 10° SSE 00:50:05 76° ENE 00:55:45 10° N
USA 234 4.1 00:49:58 10° ENE 00:55:14 26° ESE 01:00:28 10° S
BREEZE-M DEB (TANK) 2.6 00:52:39 10° SW 00:55:36 84° SE 01:02:55 10° NE
Cosmos 2242 Rocket 3.7 00:52:14 10° N 00:56:38 76° W 01:00:58 10° S
Resurs 01 Rocket 2.6 00:54:09 10° S 00:58:22 49° W 01:02:36 10° NNW
Cosmos 1934 Rocket 4.5 00:52:47 10° SSE 00:58:27 38° E 01:04:04 10° NNE
NOSS 2-1 (C) 3.9 00:54:45 10° NW 00:58:42 72° WSW 01:04:14 10° SSE
Molniya-1 3.6 00:58:07 10° SW 01:00:29 48° NW 01:03:29 10° NNE
Orbus 7S 4.3 01:07:16 10° SSW 01:07:53 11° S 01:07:59 11° S
Terra 3.3 01:05:51 14° ESE 01:08:03 19° ENE 01:11:21 10° NNE
Cosmos 1346 Rocket 2.4 01:05:21 10° N 01:08:56 68° E 01:12:30 10° SSE
ODIN 4.4 01:08:46 11° SSE 01:11:35 72° ENE 01:14:33 10° N
Mugunghwa Rocket 4.3 01:06:09 10° WSW 01:12:14 51° S 01:17:02 18° ESE
Meteor 2-16 Rocket 4.4 01:07:31 10° N 01:13:35 64° E 01:19:35 10° SSE
OAO 3 Rocket 4.4 01:11:54 10° W 01:15:54 29° SSW 01:19:04 14° SSE
Cosmos 405 Rocket 4.1 01:16:07 10° NE 01:17:25 14° ENE 01:17:25 14° ENE
Aurora 2 Rocket 3.8 01:13:32 10° WSW 01:18:04 38° S 01:21:52 20° ESE
USA 305 2.4 01:19:08 10° SW 01:22:38 84° SE 01:26:44 10° NE
Cosmos 1674 Rocket 3.7 01:18:25 10° N 01:22:48 78° W 01:27:10 10° S
Cosmos 1727 Rocket 4.0 01:16:48 10° N 01:23:08 88° W 01:29:20 10° S
Cosmos 1602 2.0 01:22:40 10° N 01:24:47 65° E 01:24:47 65° E
SL-08 R/B 4.4 01:18:48 10° S 01:24:55 86° E 01:31:03 10° N
Hubble Space Telescope 1.1 01:22:14 10° WSW 01:25:48 42° S 01:27:11 29° SE
COSMOS 2455 4.4 01:23:50 10° N 01:28:04 19° NE 01:30:28 16° E
Cosmos 2369 Rocket 2.2 01:23:22 10° NNW 01:28:56 67° ENE 01:32:42 21° SSE
Cosmos 1908 Rocket 4.0 01:25:21 10° SSW 01:29:37 63° W 01:33:52 10° N
Cosmos 1025 Rocket 3.1 01:25:33 10° N 01:29:50 75° W 01:34:07 10° S
IRAS Rocket 4.2 01:26:01 15° SSE 01:30:30 67° ENE 01:35:56 10° N
ADEOS 4.3 01:31:04 25° ESE 01:33:08 34° ENE 01:37:46 10° N
USA 59 Rocket 2.4 01:30:54 10° WNW 01:34:25 23° WSW 01:38:52 10° S
CSL-04 Debris 4.1 01:31:56 13° SSE 01:36:47 87° ENE 01:42:12 10° NNW
Cosmos 2297 3.7 01:31:12 10° NNW 01:36:55 69° ENE 01:40:17 25° SSE
Cosmos 1943 3.8 01:31:37 10° SSW 01:37:11 60° WNW 01:42:48 10° NNE
SPOT 5 2.9 01:32:46 10° S 01:37:12 66° WSW 01:41:31 10° NNW
Cosmos 2221 Rocket 3.5 01:33:56 10° N 01:38:24 86° E 01:41:31 20° S
SWAS 4.2 01:36:39 10° NNW 01:40:41 70° ENE 01:42:04 39° SE
Cosmos 1782 Rocket 3.4 01:36:30 10° S 01:40:46 78° E 01:45:04 10° N
BREEZE-M DEB (TANK) 3.2 01:36:03 10° NW 01:41:13 57° NE 01:41:50 45° E
CZ-4 R/B 1.0 01:39:58 30° SSE 01:41:44 88° ENE 01:45:24 10° N
Cosmos 1603 3.6 01:37:49 10° S 01:43:21 64° ESE 01:48:58 10° NNE
Chandra Rocket (1) 4.4 01:18:06 10° SW 01:43:34 43° S 01:48:00 27° ESE
NOSS 3-1 (C) 4.2 01:38:42 10° NNW 01:46:27 75° ENE 01:52:12 26° SE
Cosmos 1174 4.4 01:44:00 10° N 01:46:06 28° NE 01:46:06 28° NE
Cosmos 2123 Rocket 3.9 01:41:00 10° N 01:47:19 77° E 01:51:55 20° SSE
CZ-4B DEB 4.1 01:44:20 23° SSE 01:47:47 78° ENE 01:53:18 10° N
CZ-4B R/B 3.4 01:46:32 31° SE 01:49:01 55° ENE 01:54:32 10° N
Helios 1A Rocket 3.6 01:46:32 10° N 01:49:32 41° WNW 01:52:31 10° SW
CZ-4B R/B 4.2 01:47:40 23° S 01:49:52 59° W 01:53:44 10° NNW
ATLAS 5 CENTAUR R/B 3.8 01:49:03 10° NNE 01:51:28 14° NE 01:52:01 14° ENE
Cosmos 1300 Rocket 4.4 01:53:11 10° SSW 01:57:18 49° W 02:01:29 10° N
Okean-O 3.8 01:58:24 27° ENE 01:58:24 27° ENE 02:01:40 10° NNE
Okean O Rocket 2.7 01:58:36 28° ENE 01:58:36 28° ENE 02:01:50 10° NNE
YAOGAN 20C 4.4 01:53:49 10° SSW 01:59:11 79° ESE 02:04:55 10° NNE
Cosmos 1605 Rocket 3.8 01:55:42 20° S 02:00:01 71° E 02:06:09 10° N
Cosmos 1315 Rocket 3.2 01:57:17 16° SSW 02:00:06 55° W 02:03:47 10° N
Cosmos 1535 Rocket 4.3 01:55:06 15° S 02:00:11 77° E 02:06:20 10° N
Cosmos 1356 Rocket 3.2 01:59:28 43° S 02:00:44 89° W 02:04:43 10° N
Cosmos 1269 Rocket 4.1 01:55:39 10° N 02:00:51 58° ENE 02:01:59 47° ESE
IRS-1A Rocket 4.5 01:59:59 41° ESE 02:01:35 54° ENE 02:07:11 10° N
HBTSS-SV1 4.4 01:58:07 10° WNW 02:02:34 77° NNE 02:03:14 62° E
ATLAS 2AS CENTAUR R/B 3.1 02:03:36 38° ESE 02:04:06 38° ESE 02:10:23 10° NE
IUS-26 SRM-1 4.1 01:52:31 10° WSW 02:06:59 46° S 02:07:50 42° SSE
SL-08 R/B 3.4 02:03:23 10° N 02:08:16 80° WNW 02:11:29 21° SSW
DEBRIS 3.8 02:06:47 10° W 02:08:50 32° NNW 02:12:14 10° NE
Cosmos 921 Rocket 3.3 02:09:11 10° N 02:12:52 50° NE 02:12:52 50° NE
Cosmos 2263 4.4 02:08:36 10° NNW 02:14:13 65° WSW 02:16:27 37° S
OAO 2 Rocket 4.2 02:14:49 10° W 02:19:32 36° SSW 02:19:41 36° SSW
BREEZE-M DEB (TANK) 3.0 02:12:11 10° SW 02:19:36 61° NW 02:20:30 43° NNE
ERS-1 Rocket 3.4 02:20:23 36° SSW 02:22:11 56° W 02:27:07 10° NNW
Milstar 3 3.4 02:15:21 10° WSW 02:22:33 61° SSE 02:27:16 35° ESE
ASTEX 1 4.2 02:36:01 37° SW 02:37:18 46° W 02:42:02 10° NNW
USA 234 3.5 02:31:56 10° NE 02:38:26 69° NW 02:44:55 10° SW
Cosmos 2100 Rocket 4.4 02:43:11 45° ENE 02:43:11 45° ENE 02:47:59 10° NNE
MOS 1-B 4.2 02:44:59 83° SSW 02:45:13 86° WSW 02:51:02 10° NNW
Terra 3.1 02:44:27 31° WSW 02:45:16 33° W 02:49:31 10° NNW
NOSS 3-1 (A) 4.1 02:43:18 10° NNW 02:51:13 87° ENE 02:53:10 61° SE
Cosmos 371 Rocket 4.2 02:49:18 10° NNW 02:52:40 45° N 02:52:40 45° N
SPOT 3 Rocket 4.4 02:57:39 43° NNE 02:57:39 43° NNE 03:01:14 10° N
Ariane Rocket 4.3 03:03:08 32° NNE 03:03:08 32° NNE 03:06:02 10° N
BREEZE-M DEB (TANK) 4.0 03:02:43 10° NW 03:06:59 67° NE 03:07:42 64° ENE
Cosmos 1459 Rocket 4.3 03:09:14 59° NNE 03:09:14 59° NNE 03:14:16 10° N
COSMOS 2455 3.3 03:08:27 10° NNW 03:13:37 55° W 03:13:37 55° W
SJ 16-02 3.5 03:12:38 10° NNW 03:14:13 22° NNW 03:14:13 22° NNW
ATLAS 5 CENTAUR R/B 3.6 03:28:56 10° NW 03:31:08 29° NW 03:31:08 29° NW
Okean O Rocket 4.2 03:35:50 15° WNW 03:35:50 15° WNW 03:37:16 10° NW
ATLAS 2AS CENTAUR R/B 4.0 03:50:35 19° WSW 03:54:55 36° NW 04:01:11 10° NNE
Cosmos 1833 Rocket 4.4 04:03:16 28° NNW 04:03:16 28° NNW 04:06:26 10° N
ATLAS 3B R/B 4.0 04:56:24 10° NNW 05:01:00 39° NNW 05:01:00 39° NNW
ACS3 Solar Sail 3.9 05:49:40 10° NNE 05:51:35 19° NE 05:51:35 19° NE
Cosmos 2333 Rocket 4.5 06:15:14 10° N 06:16:49 19° N 06:16:49 19° N
Cosmos 2297 Rocket 4.3 07:10:21 18° E 07:10:21 18° E 07:13:05 10° NE
ADEOS Rocket 3.7 07:13:44 10° NNE 07:21:11 66° E 07:21:11 66° E
USA 281 4.3 07:20:53 30° ESE 07:23:14 40° ENE 07:29:16 10° N
Cosmos 2360 Rocket 4.4 07:29:56 10° NNW 07:31:06 16° NNW 07:31:06 16° NNW
NOSS 3-4 (A) 4.1 07:28:28 10° NNW 07:35:41 69° ENE 07:39:06 38° SE
NOSS 3-4 (C) 4.2 07:29:03 10° NNW 07:36:16 69° ENE 07:40:24 32° SE
ACS3 Solar Sail 3.4 07:32:16 10° NNW 07:35:06 23° NW 07:35:06 23° NW
H-2A R/B 3.9 07:35:25 10° NE 07:39:37 23° E 07:39:51 23° E
ATLAS 5 CENTAUR R/B 3.2 07:46:22 67° ENE 07:46:22 67° ENE 07:57:21 10° NE
Cosmos 2219 Rocket 3.9 07:54:12 10° NNW 07:56:16 23° NW 07:56:16 23° NW
Cosmos 1937 Rocket 4.3 07:58:21 10° N 08:03:18 46° ENE 08:03:50 44° E
H-2A R/B 4.4 08:10:40 23° NE 08:10:40 23° NE 08:12:58 10° NNE
Cosmos 1898 Rocket 4.1 08:05:36 10° NNW 08:09:24 50° N 08:09:24 50° N
CZ-2D R/B 2.2 08:08:55 10° NNE 08:14:12 70° E 08:14:12 70° E
Cosmos 2227 Rocket 3.6 08:15:29 25° SE 08:17:19 30° ESE 08:22:12 10° NE
Meteor 2-10 Rocket 3.8 08:14:08 10° N 08:19:25 67° E 08:20:17 58° SE
Resurs 1-4 Rocket 2.0 08:15:34 10° NNE 08:20:37 81° N 08:20:37 81° N
Cosmos 1244 Rocket 4.4 08:18:28 10° N 08:24:40 85° E 08:26:11 54° SSE
DMSP B5D2-2 4.0 08:24:31 80° ESE 08:24:42 82° ENE 08:29:54 10° N
Cosmos 1814 Rocket 4.0 08:34:32 62° SSE 08:35:09 70° ESE 08:40:16 10° NNE
S3M 4.5 08:33:07 26° SSE 08:36:43 58° E 08:42:50 10° NNE
Meteor 2-11 Rocket 4.4 08:33:07 10° NNW 08:39:11 64° W 08:39:56 58° SW
CRYOSAT 2 4.3 08:39:29 68° SSE 08:40:07 87° E 08:45:01 10° N
Nadezhda 2 Rocket 4.3 08:36:34 10° N 08:42:40 79° W 08:44:56 41° S
Cosmos 2322 3.5 08:37:20 10° NNW 08:43:01 78° WSW 08:45:25 36° S
Cosmos 44 4.3 08:42:50 10° NNW 08:48:02 49° ENE 08:53:00 10° SE
Cosmos 1500 Rocket 4.2 08:44:05 10° N 08:48:25 54° E 08:51:09 21° SSE
USA 267 3.4 08:45:14 10° NE 08:51:40 61° NW 08:54:05 39° WSW
Cosmos 2297 Rocket 2.5 08:52:09 43° W 08:52:47 45° WNW 08:58:10 10° N
Cosmos 2263 Rocket 3.3 08:52:04 17° SSE 08:55:55 40° ESE 09:01:08 10° NE
Cosmos 1703 4.0 08:56:07 33° ESE 08:56:40 36° E 08:59:39 10° NNE
ADEOS II 2.1 08:54:37 10° N 08:59:44 58° WNW 09:00:53 47° WSW
Cosmos 158 Rocket 4.1 08:59:48 48° WSW 09:00:51 57° WNW 09:06:07 10° N
In-Cosmos 22 4.5 09:02:19 40° W 09:02:51 41° WNW 09:07:57 10° N
NOSS 0 Rocket 3.8 08:59:57 10° NNW 09:06:08 80° WSW 09:12:15 10° SSE
USA 281 3.8 09:07:43 32° WSW 09:07:43 32° WSW 09:13:25 10° NW
ALOS 3.2 09:04:48 10° NNW 09:08:36 29° WNW 09:08:36 29° WNW
METEOR-M 4.1 09:04:23 10° N 09:09:40 67° WNW 09:12:00 34° SSW
Lacrosse 4 Rocket 1.2 09:10:35 47° S 09:11:36 78° ESE 09:15:33 10° NNE
Cosmos 1805 Rocket 3.4 09:07:55 10° NNW 09:12:15 70° W 09:14:12 31° S
Cosmos 1758 3.6 09:09:45 10° NNW 09:12:37 41° WNW 09:12:37 41° WNW
Cosmos 1743 Rocket 3.8 09:09:08 10° N 09:13:27 65° E 09:17:43 10° SSE
Envisat 4.4 09:11:06 10° NNW 09:14:51 21° WNW 09:15:06 21° WNW
Cosmos 489 Rocket 4.5 09:11:38 22° SSW 09:15:54 90° W 09:22:18 10° NNE
H-2A R/B 2.8 09:14:06 10° N 09:18:51 35° WNW 09:20:21 30° WSW
Cosmos 1709 Rocket 4.0 09:17:02 10° N 09:23:11 86° E 09:29:21 10° S
SL-16 R/B 3.1 09:17:33 10° SSE 09:23:41 61° ENE 09:29:51 10° N
JB-3 4.3 09:24:21 42° WSW 09:24:48 44° W 09:28:16 10° NNW
COSMOS 2428 3.3 09:23:15 10° NW 09:28:17 33° WSW 09:32:16 15° SSW
ARGOS 3.1 09:24:43 10° N 09:30:02 66° WNW 09:34:07 17° SSW
SL-08 RB Rocket 3.7 09:29:20 10° NNE 09:33:49 83° ESE 09:38:18 10° S
USA 81 4.0 09:36:09 10° N 09:41:26 89° W 09:46:41 10° S
H-2A R/B 4.4 09:45:37 10° WNW 09:45:37 10° WNW 09:45:46 10° WNW
Cosmos 1745 Rocket 4.3 09:38:16 10° NNW 09:44:01 44° W 09:49:46 10° SSW
RESURS DK-1 2.8 09:42:16 10° NW 09:45:52 34° WSW 09:49:27 10° S
H-2A R/B 2.2 09:47:40 10° N 09:51:26 43° WNW 09:54:33 14° SW
SL-24 R/B 3.5 09:47:51 10° N 09:51:32 76° WNW 09:55:10 10° SSW
BREEZE-M DEB (TANK) 2.7 09:47:50 10° NW 09:52:54 57° NNE 09:55:19 10° ESE
CZ-2D R/B 4.0 09:51:25 10° NW 09:53:33 12° WNW 09:55:28 10° W
Cosmos 2237 Rocket 2.3 09:50:04 10° NNW 09:55:32 51° WSW 10:00:58 10° S
Cosmos 1328 Rocket 3.8 09:51:40 10° SSW 09:55:48 48° W 10:00:02 10° N
Cosmos 1125 Rocket 4.4 09:51:58 10° N 09:57:09 54° ENE 10:02:17 10° SSE
Cosmos 1980 4.0 09:52:45 10° NW 09:58:05 44° WSW 10:03:23 10° S
Delta 2 Rocket 3.3 09:57:22 13° WNW 09:59:50 46° N 10:02:50 10° ENE
Cosmos 2227 Rocket 3.2 09:57:19 14° WSW 10:01:13 30° WNW 10:06:08 10° N
Okean 2 3.5 09:59:58 10° S 10:03:47 70° E 10:07:36 10° N
CZ-3 R/B 3.3 09:38:56 10° W 10:06:14 61° SSW 10:13:49 10° SE
Cosmos 836 Rocket 4.5 10:01:08 10° SSW 10:06:19 75° WNW 10:11:30 10° NNE
Cosmos 1340 Rocket 3.8 10:04:27 10° NW 10:07:30 24° W 10:10:36 10° SW
Meteor 1-22 Rocket 4.5 10:04:49 10° NNW 10:10:34 51° W 10:16:05 10° SSW
Intercosmos 25 3.2 10:07:56 10° SSW 10:11:12 64° W 10:15:34 10° N
IRIDIUM 106 4.3 10:07:36 10° N 10:12:51 87° W 10:18:03 10° S
Meteor 1-16 Rocket 4.5 10:10:06 10° N 10:15:27 70° E 10:20:42 10° SSE
Cosmos 1470 Rocket 3.7 10:11:59 10° N 10:16:17 81° E 10:20:36 10° S
CZ-2C R/B 2.5 10:11:48 10° N 10:16:19 49° WNW 10:20:43 10° SSW
Tiangong 0.0 10:13:58 10° SSW 10:16:21 20° SE 10:18:43 10° E
UNK 4.0 10:17:03 10° SSE 10:21:36 77° ENE 10:26:10 10° N
